This is the latest recevied weather packets stored in our database for station/object K7TSD. If no packets are shown the sender has not sent any weather packets the latest 10 day(s).
| Time | Temp. | Humidity | Pressure | Rain* | Wind** | Luminosity | Snow |
|---|---|---|---|---|---|---|---|
| 1777517450 | 3.33° C | 74% | 1019.7 hPa | 0 mm | - | 0 W/m² | - |
| 1777517149 | 3.89° C | 73% | 1019.3 hPa | 0 mm | - | 0 W/m² | - |
| 1777516847 | 3.89° C | 73% | 1019.5 hPa | 0 mm | - | 0 W/m² | - |
| 1777516543 | 3.89° C | 73% | 1019.3 hPa | 0 mm | - | 0 W/m² | - |
| 1777516239 | 3.89° C | 73% | 1019.3 hPa | 0 mm | - | 0 W/m² | - |
| 1777515935 | 4.44° C | 72% | 1019.3 hPa | 0 mm | - | 0 W/m² | - |
| 1777515632 | 4.44° C | 71% | 1018.9 hPa | 0 mm | - | 0 W/m² | - |
| 1777515329 | 4.44° C | 72% | 1018.9 hPa | 0 mm | - | 0 W/m² | - |
| 1777515019 | 5° C | 69% | 1019 hPa | 0 mm | - | 2 W/m² | - |
| 1777514716 | 5.56° C | 69% | 1019.2 hPa | 0 mm | - | 4 W/m² | - |
| 1777514414 | 5° C | 68% | 1019 hPa | 0 mm | - | 6 W/m² | - |
| 1777514110 | 5.56° C | 67% | 1019 hPa | 0 mm | - | 9 W/m² | - |
| 1777513807 | 5.56° C | 68% | 1019.2 hPa | 0 mm | - | 12 W/m² | - |
| 1777513504 | 6.11° C | 67% | 1018.8 hPa | 0 mm | - | 18 W/m² | - |
| 1777513201 | 6.11° C | 68% | 1018.7 hPa | 0 mm | - | 27 W/m² | - |
| 1777512896 | 6.11° C | 67% | 1018.8 hPa | 0 mm | - | 33 W/m² | - |
| 1777512594 | 6.11° C | 66% | 1018.3 hPa | 0 mm | - | 28 W/m² | - |
| 1777512290 | 6.11° C | 67% | 1018.8 hPa | 0 mm | - | 31 W/m² | - |
| 1777511986 | 6.11° C | 67% | 1018.7 hPa | 0 mm | - | 29 W/m² | - |
| 1777511685 | 6.67° C | 65% | 1018.6 hPa | 0 mm | - | 29 W/m² | - |
| 1777511382 | 6.67° C | 64% | 1018.2 hPa | 0 mm | - | 50 W/m² | - |
| 1777511077 | 6.67° C | 64% | 1018.3 hPa | 0 mm | - | 57 W/m² | - |
| 1777510768 | 6.67° C | 64% | 1018.2 hPa | 0 mm | - | 59 W/m² | - |
| 1777510466 | 6.67° C | 65% | 1018.3 hPa | 0 mm | - | 55 W/m² | - |
| 1777510161 | 6.67° C | 64% | 1018.3 hPa | 0 mm | - | 69 W/m² | - |
* Rain latest hour (hover to see other rain measurements)
** Current wind speed in m/s (hover to see current wind gust speed)